Regional Weather Roundup
Issued by NWS

Home | Current Version | Previous Version | Text Only | Print | Product List | Glossary Off
Versions: 1 2 3 4 5 6 7 8 9 10 11 12 13 14 15 16 17 18 19 20 21 22 23 24 25 26 27

000
ASUS45 KCYS 151810
RWRWY

WYOMING REGIONAL WEATHER ROUNDUP
NATIONAL WEATHER SERVICE CHEYENNE WY
1100 AM MST FRI DEC 15 2017

NOTE:  "FAIR" INDICATES FEW OR NO CLOUDS BELOW 12,000 FEET
WITH NO SIGNIFICANT WEATHER AND/OR OBSTRUCTIONS TO VISIBILITY.

WYZ001-151900-
YELLOWSTONE NATIONAL PARK

CITY           SKY/WX    TMP DP  RH WIND       PRES   REMARKS
LK YELLOWSTONE   N/A     21  19  92 CALM      30.20F
6HR MIN TEMP:  11; 6HR MAX TEMP:  21;

W YELLOWSTONE  NOT AVBL

$$
WYZ002>013-054>058-071-098>099-151900-
NORTHERN WYOMING

CITY           SKY/WX    TMP DP  RH WIND       PRES   REMARKS
JACKSON        FAIR      26  15  63 CALM      30.24F
CODY           FAIR      27  19  72 VRB3      29.92F
GREYBULL       FAIR      28  17  63 SE3       29.97F
6HR MIN TEMP:  15; 6HR MAX TEMP:  28;

WORLAND        FAIR      31  22  69 CALM      29.97F
6HR MIN TEMP:  10; 6HR MAX TEMP:  31;

SHERIDAN       FAIR      41  22  46 CALM      29.80F
6HR MIN TEMP:  20; 6HR MAX TEMP:  42;

BUFFALO        FAIR      53  10  18 SE8       29.84F
6HR MIN TEMP:  29; 6HR MAX TEMP:  54;

GILLETTE       FAIR      46  20  35 SW13      29.83F
6HR MIN TEMP:  32; 6HR MAX TEMP:  47;

HULETT         FAIR      43  18  36 SW9       29.83F
NEWCASTLE      FAIR      37  19  48 E9        29.89F WCI  31

$$
WYZ014>020-022>026-101>103-151900-
CENTRAL WYOMING

CITY           SKY/WX    TMP DP  RH WIND       PRES   REMARKS
BIG PINEY      FAIR      27  15  61 S3        30.18F
6HR MIN TEMP:   6; 6HR MAX TEMP:  27;

PINEDALE       FAIR      34  18  51 W13       30.18F WCI  25
DUBOIS         FAIR      37   9  30 NW15G25   30.05F WCI  28
LANDER         FAIR      25  14  63 CALM      30.01F
6HR MIN TEMP:  14; 6HR MAX TEMP:  25;

RIVERTON       FAIR      27  17  66 CALM      30.03F
6HR MIN TEMP:  12; 6HR MAX TEMP:  27;

CASPER         FLURRIES  37  18  46 SW38G46   29.98F WCI  23
6HR MIN TEMP:  28; 6HR MAX TEMP:  37; 6HR PCP: TRACE;

DOUGLAS        FAIR      51  17  26 W15       29.92F
6HR MIN TEMP:  19; 6HR MAX TEMP:  51;


$$
WYZ021-027>030-104>119-151900-
SOUTHERN WYOMING

CITY           SKY/WX    TMP DP  RH WIND       PRES   REMARKS
EVANSTON       FAIR      28  14  55 SW13      30.23F WCI  17
6HR MIN TEMP:  19; 6HR MAX TEMP:  29;

FORT BRIDGER   FAIR      42   3  19 W21G29    30.23R
ROCK SPRINGS   FAIR      36  11  35 SW13      30.18F WCI  27
6HR MIN TEMP:  26; 6HR MAX TEMP:  39;

DIXON          FAIR      28  16  60 CALM      30.28F
RAWLINS        FAIR      36  16  44 SW10      30.15R WCI  28
6HR MIN TEMP:  27; 6HR MAX TEMP:  37;

SARATOGA       FAIR      32  14  47 S12       30.18F WCI  23
LARAMIE        FAIR      34  19  54 SW9       30.07F WCI  27
6HR MIN TEMP:  20; 6HR MAX TEMP:  34;

CHEYENNE       FAIR      46  13  26 W28G39    29.98F
6HR MIN TEMP:  32; 6HR MAX TEMP:  46;

TORRINGTON     FAIR      50  15  24 W22G31    29.90F
6HR MIN TEMP:  20; 6HR MAX TEMP:  50;

PINE BLUFFS    FAIR      46  16  29 MISG      29.98F

$$




USA.gov is the U.S. government's official web portal to all federal, state and local government web resources and services.